User: anonymous   Login
Location: Davayat
(45.9471°N, 3.1105°E)
Time: 21:23:34
(UTC+00:00)
Language:

CZ-2C R/B - Orbit

View from above orbital plane
View from above orbital plane
View from above satellite
View from above satellite

Ground track
Ground track

The orbit data is extracted from the following two-line orbital elements,

1 28480U 04046B   21055.35205936  .00000058  00000-0  36964-4 0  9997
2 28480  98.0575  76.4410 0141531 198.5262 172.6148 14.25741379846312
Epoch (UTC): 24 February 2021 08:26:57
Eccentricity: 0.0141531
inclination: 98.0575°
perigee height: 704 km
apogee height: 907 km
right ascension of ascending node: 76.4410°
argument of perigee: 198.5262°
revolutions per day: 14.25741379
mean anomaly at epoch: 172.6148°
orbit number at epoch: 84631

The dashed part of the orbit path shows where the satellite is in the earth's shadow,  

DLR